[[{"header":{"parameterUnit":"m.s-1","parameterCategory":1,"la1":30.2991,"la2":30.254,"lo1":-89.0895,"lo2":-89.0444,"dy":0.0017,"dx":0.0017,"nx":28,"ny":28,"refTime":"2024-07-08T21:00:00:Z","depth":0,"parameterNumber":2,"parameterNumberName":"U-component_of_WINDS"},"data":[0,0,0,0,0,0,0,0,0,0,0,0,0,0,0,0,0,0,0,0,0,0,0,0,0,0,0,0,0,0,0,0,0,0,0,0,0,0,0,0,0,0,0,0,0,0,0,0,0,0,0,0,0,0,0,0,0,0,1.362,1.3621,0,1.3748,1.3749,1.3751,1.3811,1.3811,1.3811,1.3811,1.3943,1.3947,1.395,0,0,0,0,0,0,0,0,0,0,0,0,0,1.3429,1.3432,1.3619,1.3621,1.3623,1.3747,1.3749,1.3751,1.3811,1.3811,1.3811,1.3811,1.3942,1.3946,1.3951,0,0,0,0,0,0,0,0,0,0,0,0,0,1.353,1.3433,1.3619,1.3668,1.3674,1.3747,1.3749,1.3751,1.3811,1.3811,1.3811,1.3811,1.3941,1.3946,1.3951,1.3986,0,0,1.3968,1.397,0,0,0,0,0,0,0,0,1.3524,1.3537,1.3659,1.3665,1.3671,1.3763,1.3731,1.383,1.3812,1.3759,1.3811,1.3811,1.3884,1.3894,1.3918,1.3993,1.3998,1.3968,1.3971,1.3974,1.3975,0,0,0,0,0,0,0,1.3517,1.3532,1.367,1.3661,1.3668,1.3684,1.3698,1.375,1.382,1.3764,1.3768,1.3783,1.3887,1.3913,1.3922,1.4,1.3968,1.3973,1.3976,1.3978,1.4112,1.4112,0,0,0,0,0,0,1.3502,1.3525,1.3666,1.3674,1.3596,1.3687,1.3703,1.3734,1.382,1.3833,1.3783,1.3785,1.3904,1.3915,1.3926,1.3975,1.3974,1.3979,1.3982,1.4112,1.4112,1.4112,0,0,0,0,0,0,1.3498,1.3514,1.3661,1.3601,1.3621,1.3691,1.3725,1.3737,1.3762,1.3834,1.3847,1.3796,1.3904,1.3919,1.3971,1.398,1.3981,1.3986,1.4111,1.4112,1.4112,1.407,0,0,0,0,0,0,1.3492,1.3512,1.3525,1.3601,1.3624,1.3703,1.3725,1.3739,1.3771,1.3776,1.385,1.3862,1.3905,1.3963,1.3977,1.3987,1.399,1.4111,1.4112,1.4112,1.4071,1.4069,1.4068,0,0,0,0,0,1.3485,1.3508,1.3526,1.3542,1.3642,1.3704,1.3717,1.3765,1.3772,1.3786,1.3833,1.386,1.3977,1.3968,1.3984,1.3996,1.4111,1.4111,1.4112,1.4072,1.407,1.4068,0,0,0,0,0,0,1.3432,1.3519,1.3539,1.3588,1.3638,1.3714,1.3734,1.3761,1.381,1.3812,1.387,1.3886,1.3934,1.397,1.3959,1.4036,1.4046,1.405,1.401,1.4009,1.4007,1.3998,1.3995,0,0,0,0,0,1.3426,1.3468,1.3542,1.3578,1.3602,1.3663,1.3692,1.3724,1.3779,1.38,1.385,1.3902,1.3951,1.3982,1.403,1.4076,1.4094,1.4093,1.4091,1.4089,1.4092,1.4121,1.4122,1.4115,1.4115,1.4115,0,0,1.3414,1.3467,1.349,1.3568,1.3611,1.3654,1.368,1.3724,1.3757,1.3807,1.386,1.3899,1.3961,1.401,1.4035,1.4042,1.4098,1.409,1.4088,1.4093,1.4122,1.4123,1.4123,1.4115,1.4115,1.4115,0,0,1.3415,1.3458,1.3493,1.3536,1.36,1.3641,1.3649,1.3721,1.3749,1.3803,1.3842,1.3882,1.3963,1.4007,1.4039,1.4057,1.4084,1.4071,1.4062,1.4089,1.409,1.4091,1.4098,1.41,1.4074,1.4073,1.4073,0,1.3392,1.3458,1.3508,1.3551,1.3585,1.3631,1.3668,1.3707,1.3784,1.3806,1.3813,1.3918,1.3963,1.4024,1.4029,1.4053,1.4066,1.4063,1.4086,1.4087,1.4088,1.4097,1.4099,1.4072,1.4072,1.4072,1.4072,0,1.3427,1.3472,1.3493,1.3567,1.3603,1.3642,1.3699,1.373,1.376,1.38,1.3856,1.3911,1.3972,1.3989,1.4018,1.4055,1.4058,1.4074,1.4086,1.4086,1.4095,1.4098,1.4069,1.4069,1.407,1.407,0,0,1.3398,1.3499,1.3506,1.3541,1.3615,1.3652,1.3693,1.3753,1.3779,1.3831,1.3868,1.3937,1.3953,1.399,1.4025,1.4048,1.4061,1.4063,1.4065,1.4061,1.4107,1.4095,1.4097,1.4079,1.408,1.4081,1.4102,0,1.341,1.3487,1.3534,1.3592,1.3636,1.3681,1.3718,1.3768,1.3807,1.385,1.3893,1.3942,1.3958,1.3981,1.4007,1.4054,1.4071,1.4053,1.4116,1.4118,1.41,1.4102,1.4089,1.4107,1.4106,1.4106,1.4107,0,1.3434,1.3485,1.3547,1.3619,1.3639,1.3671,1.373,1.377,1.3828,1.3855,1.3897,1.3932,1.3979,1.3986,1.4053,1.404,1.4068,1.4095,1.4097,1.4106,1.4113,1.4112,1.4113,1.4116,1.4112,1.4112,1.4111,0,1.3408,1.3492,1.3541,1.3569,1.3653,1.3674,1.371,1.3769,1.3802,1.3854,1.3877,1.3933,1.3965,1.4008,1.4058,1.4059,1.412,1.4131,1.4145,1.4144,1.4157,1.4155,1.4164,1.4173,1.4172,1.4172,1.4172,0,1.3417,1.3454,1.3531,1.3561,1.3604,1.3658,1.3699,1.3739,1.3791,1.383,1.3872,1.3909,1.3972,1.4016,1.4055,1.4105,1.4119,1.4143,1.4153,1.414,1.4137,1.416,1.4161,1.4173,1.4173,1.4173,1.4173,0,1.3396,1.3449,1.3505,1.358,1.36,1.3628,1.3693,1.3724,1.3766,1.3815,1.383,1.3895,1.3949,1.4003,1.4076,1.4103,1.4153,1.4166,1.4133,1.4139,1.415,1.4148,1.4175,1.4181,1.4184,1.4184,1.4184,0,1.3399,1.3428,1.3507,1.3536,1.3571,1.3618,1.3652,1.3707,1.3741,1.3811,1.3834,1.3891,1.394,1.4025,1.408,1.4136,1.4152,1.4157,1.416,1.4147,1.4154,1.4152,1.4156,1.4155,1.4155,1.4155,1.4155,0,1.3399,1.3424,1.3471,1.3529,1.3569,1.3617,1.3666,1.3688,1.3753,1.3789,1.3845,1.3883,1.3958,1.4015,1.4078,1.4116,1.4147,1.4153,1.416,1.4147,1.4127,1.414,1.413,1.4152,1.4153,1.4153,1.4153,1.4153,1.3391,1.342,1.348,1.3532,1.3575,1.3621,1.3654,1.37,1.3748,1.3813,1.3843,1.3899,1.3959,1.4046,1.4084,1.413,1.4138,1.4146,1.4149,1.4151,1.4148,1.4119,1.4141,1.4141,1.4141,1.4142,1.4142,0,1.3394,1.3435,1.3483,1.3551,1.3592,1.3617,1.3673,1.3707,1.3756,1.3808,1.3856,1.3921,1.3977,1.4036,1.4095,1.4121,1.4137,1.4135,1.4134,1.4143,1.4137,1.4126,1.4121,1.4121,1.4121,1.4121,1.4121,1.4121,1.3401,1.3451,1.3483,1.3556,1.3598,1.3654,1.3684,1.3727,1.3769,1.384,1.3886,1.3924,1.398,1.4044,1.4097,1.4113,1.4133,1.4128,1.4148,1.4142,1.4143,1.4144,1.4135,1.4132,1.4132,1.415,1.415,1.4151]},{"header":{"parameterUnit":"m.s-1","parameterCategory":1,"la1":30.2991,"la2":30.254,"lo1":-89.0895,"lo2":-89.0444,"dy":0.0017,"dx":0.0017,"nx":28,"ny":28,"refTime":"2024-07-08T21:00:00:Z","depth":0,"parameterNumber":3,"parameterNumberName":"V-component_of_WINDS"},"data":[0,0,0,0,0,0,0,0,0,0,0,0,0,0,0,0,0,0,0,0,0,0,0,0,0,0,0,0,0,0,0,0,0,0,0,0,0,0,0,0,0,0,0,0,0,0,0,0,0,0,0,0,0,0,0,0,0,0,1.9442,1.9442,0,1.9388,1.9387,1.9386,1.9315,1.9314,1.9313,1.9311,1.9258,1.9258,1.9257,0,0,0,0,0,0,0,0,0,0,0,0,0,1.9485,1.9484,1.9442,1.9441,1.9441,1.9388,1.9387,1.9386,1.9315,1.9314,1.9312,1.9311,1.9258,1.9258,1.9257,0,0,0,0,0,0,0,0,0,0,0,0,0,1.9452,1.9484,1.9442,1.9399,1.9394,1.9388,1.9387,1.9386,1.9315,1.9314,1.9312,1.931,1.9258,1.9258,1.9257,1.9289,0,0,1.9256,1.9255,0,0,0,0,0,0,0,0,1.9454,1.9451,1.9406,1.9402,1.9397,1.9356,1.9382,1.9354,1.9316,1.9346,1.9311,1.9309,1.9292,1.9289,1.9282,1.9287,1.9285,1.9256,1.9255,1.9255,1.9255,0,0,0,0,0,0,0,1.9456,1.9453,1.9421,1.9405,1.94,1.9382,1.9376,1.9377,1.933,1.9343,1.9337,1.9332,1.9289,1.9283,1.9281,1.9284,1.9256,1.9255,1.9255,1.9255,1.9309,1.9311,0,0,0,0,0,0,1.9465,1.9455,1.9422,1.9419,1.9422,1.9383,1.9375,1.9371,1.9329,1.9321,1.9333,1.9329,1.9285,1.9281,1.9279,1.9312,1.9255,1.9255,1.9254,1.9308,1.931,1.9312,0,0,0,0,0,0,1.9466,1.9463,1.9425,1.9435,1.9429,1.9384,1.938,1.9371,1.9365,1.9322,1.9314,1.9336,1.9283,1.9279,1.9286,1.9309,1.9254,1.9254,1.9306,1.9308,1.9311,1.938,0,0,0,0,0,0,1.9468,1.9464,1.9476,1.9436,1.9429,1.9434,1.9381,1.9371,1.9364,1.9357,1.9322,1.9315,1.9282,1.9288,1.9286,1.9307,1.9254,1.9303,1.9307,1.931,1.9375,1.9385,1.9392,0,0,0,0,0,1.9469,1.9498,1.9477,1.9473,1.9443,1.9435,1.9431,1.9392,1.9366,1.9377,1.9349,1.9316,1.9307,1.9289,1.9287,1.9308,1.9302,1.9306,1.931,1.9372,1.9383,1.9392,0,0,0,0,0,0,1.9543,1.9492,1.9468,1.9485,1.9464,1.9423,1.9436,1.9405,1.9393,1.9387,1.934,1.9333,1.9345,1.9327,1.9308,1.9336,1.9299,1.9303,1.9347,1.9357,1.9366,1.937,1.9253,0,0,0,0,0,1.956,1.9558,1.9514,1.9533,1.9524,1.9482,1.9478,1.9449,1.9426,1.9418,1.9391,1.9371,1.9363,1.9359,1.935,1.9373,1.9363,1.9386,1.9395,1.9402,1.9405,1.9414,1.9423,1.9325,1.9325,1.9325,0,0,1.9598,1.957,1.9572,1.9547,1.9528,1.9527,1.9476,1.9477,1.9475,1.9418,1.9423,1.9402,1.9377,1.9391,1.9396,1.9377,1.943,1.9407,1.9413,1.9412,1.9419,1.9428,1.9437,1.9327,1.9327,1.9326,0,0,1.9665,1.9644,1.9656,1.9638,1.9609,1.9581,1.9584,1.9546,1.953,1.9534,1.949,1.9488,1.9476,1.9459,1.9449,1.9507,1.9475,1.9505,1.955,1.9559,1.9566,1.9573,1.9593,1.96,1.9509,1.9509,1.951,0,1.9715,1.971,1.9667,1.967,1.966,1.9607,1.9619,1.9603,1.9574,1.9568,1.9546,1.9529,1.9508,1.9517,1.9531,1.9525,1.9526,1.9509,1.9569,1.9575,1.958,1.9598,1.9606,1.9513,1.9513,1.9512,1.9512,0,1.9772,1.977,1.9783,1.9754,1.9746,1.9754,1.9711,1.9708,1.9679,1.9653,1.9657,1.9629,1.9613,1.9613,1.9586,1.9617,1.9606,1.9577,1.9539,1.9594,1.961,1.9617,1.9519,1.9517,1.9516,1.9515,0,0,1.9885,1.983,1.9836,1.9821,1.9785,1.9782,1.9786,1.9769,1.9766,1.9748,1.975,1.974,1.9712,1.9701,1.9672,1.968,1.9725,1.965,1.9648,1.9664,1.9756,1.9778,1.9786,1.9704,1.9705,1.9706,1.9758,0,1.9944,1.9948,1.9908,1.9923,1.9919,1.9868,1.9872,1.985,1.9825,1.9818,1.9791,1.9784,1.9749,1.9741,1.9747,1.9719,1.9743,1.9714,1.9705,1.9705,1.9712,1.9795,1.9818,1.9869,1.9764,1.9765,1.9766,0,2.0013,1.9996,2.0011,1.9972,1.9969,1.9973,1.9952,1.9947,1.992,1.9902,1.9888,1.9853,1.9855,1.9819,1.9819,1.9801,1.9794,1.978,1.9781,1.9778,1.9739,1.9794,1.9884,1.9892,1.9776,1.9775,1.9774,0,2.0092,2.0073,2.0078,2.0068,2.0023,2.0027,2.0008,1.998,1.9971,1.9954,1.9948,1.9931,1.9922,1.991,1.9872,1.985,1.9877,1.9838,1.9861,1.9862,1.9869,1.9869,1.9959,1.9866,1.9866,1.9866,1.9866,0,2.0162,2.0172,2.0113,2.0116,2.0126,2.008,2.0091,2.0068,2.0043,2.004,1.9996,1.9994,1.9944,1.9938,1.9908,1.9912,1.9909,1.9893,1.9885,1.9897,1.9899,1.9892,1.9887,1.9868,1.9867,1.9867,1.9867,0,2.0252,2.0212,2.0215,2.0171,2.016,2.0169,2.0132,2.0133,2.0105,2.0102,2.0099,2.0055,2.0044,2.0005,1.9985,1.9965,1.9979,1.9964,1.9987,1.9982,2.0007,2.0005,2.0095,2.0104,2.0007,2.0008,2.0008,0,2.0298,2.0305,2.0262,2.0256,2.0239,2.0232,2.0222,2.0177,2.0169,2.0138,2.0143,2.0128,2.0114,2.01,2.0066,2.005,2.0034,2.0066,2.0031,2.0042,2.0033,2.0033,2.0033,2.0074,2.0075,2.0076,2.0077,0,2.0385,2.0365,2.0353,2.0333,2.0323,2.0306,2.0286,2.0284,2.0233,2.0227,2.0215,2.0204,2.0182,2.0168,2.0146,2.0127,2.0094,2.0088,2.0093,2.0105,2.0118,2.011,2.0007,2.0087,2.0086,2.0085,2.0084,2.0084,2.0454,2.0457,2.0426,2.0413,2.0393,2.0376,2.0374,2.0344,2.0333,2.0312,2.0286,2.0277,2.0248,2.0215,2.0199,2.0191,2.0173,2.0179,2.0181,2.0183,2.0188,2.0119,2.0187,2.0187,2.0186,2.0186,2.0186,0,2.0538,2.0515,2.0504,2.0477,2.0466,2.0435,2.041,2.0404,2.0396,2.0373,2.0359,2.0345,2.033,2.0295,2.0277,2.0277,2.0261,2.0274,2.0273,2.0269,2.0206,2.0204,2.0287,2.0287,2.0287,2.0287,2.0287,2.0287,2.058,2.0582,2.0558,2.055,2.0527,2.0517,2.0506,2.0489,2.0469,2.0455,2.0442,2.0418,2.039,2.0369,2.0354,2.0344,2.0339,2.0357,2.0342,2.0284,2.0274,2.0265,2.0262,2.0357,2.0357,2.0406,2.0406,2.0407]}]]